Flag for Thailand Weather past 2 weeks in Phuket, Thailand

Now
88 °F

Partly sunny.


Feels Like: 96 °F
Forecast: 83 / 87 °F
Wind: 16 mph from West

Location: Phuket Airport

Current Time: Aug 1, 2014 at 3:14:00 PM

Latest Report: Aug 1, 2014 at 2:30 PM


Visibility: N/A

Pressure: 29.80 "Hg

Humidity: 62%

Dew point: 73 °F

Location of PhuketLocation

Historic Weather in Phuket — Graph

°F

Phuket temperature yesterday

Maximum temperature yesterday: 88 °F (at 11:00 AM)
Minimum temperature yesterday: 82 °F (at 5:00 AM)
Average temperature yesterday: 85 °F

Past Weeks' High & Low Weather Summary

 TemperatureHumidityPressure
High91 °F (Jul 20, 12:00 PM)94% (Jul 19, 5:30 AM)29.92 "Hg (Jul 19, 5:30 AM)
Low75 °F (Jul 20, 7:30 PM)49% (Jul 20, 12:30 PM)29.74 "Hg (Jul 17, 4:00 PM)
Average83 °F75%29.83 "Hg
* Reported Jul 17 2:00 PM — Aug 1 2:00 PM, Phuket, Weather by CustomWeather, © 2014

Note: Actual official high and low records may vary slightly from our data, if they occured in-between our weather recording intervals... More about our weather records

Advertising

Phuket weather history for previous 24 hours

 ConditionsComfort  
Time TempWeatherWind HumidityBarometerVisibility
2:00 PM
Aug 1
88 °FPartly sunny.16 mph62%29.80 "HgN/A
1:30 PM88 °FPartly sunny.17 mph62%29.80 "HgN/A
1:00 PM88 °FPartly sunny.17 mph62%29.83 "HgN/A
12:30 PM88 °FPartly sunny.17 mph62%29.83 "HgN/A
12:00 PM88 °FPartly sunny.17 mph62%29.83 "HgN/A
11:30 AM86 °FPartly sunny.17 mph66%29.83 "HgN/A
11:00 AM88 °FPartly sunny.17 mph62%29.86 "HgN/A
10:30 AM88 °FPartly sunny.14 mph62%29.86 "HgN/A
9:30 AM86 °FPartly sunny.20 mph66%29.86 "Hg6 mi
8:30 AM86 °FPartly sunny.14 mph66%29.86 "Hg5 mi
7:30 AM82 °FPartly sunny.10 mph74%29.83 "Hg4 mi
7:00 AM82 °FWarm.6 mph74%29.83 "HgN/A
6:30 AM82 °FPartly sunny.13 mph74%29.80 "Hg4 mi
6:00 AM82 °FPassing clouds.10 mph74%29.80 "Hg5 mi
5:00 AM82 °FPartly cloudy.14 mph74%29.80 "Hg5 mi
4:30 AM82 °FPartly cloudy.12 mph74%29.80 "Hg5 mi
2:00 AM82 °FPartly cloudy.16 mph74%29.80 "Hg5 mi
1:00 AM84 °FWarm.12 mph70%29.83 "Hg5 mi
12:30 AM84 °FPartly cloudy.13 mph70%29.83 "Hg5 mi
12:00 AM84 °FPartly cloudy.8 mph70%29.86 "Hg5 mi
11:30 PM
Jul 31
82 °FPartly cloudy.10 mph74%29.86 "Hg5 mi
11:00 PM82 °FPartly cloudy.5 mph79%29.86 "Hg5 mi
10:30 PM82 °FPartly cloudy.8 mph79%29.83 "Hg5 mi
10:00 PM84 °FPartly cloudy.13 mph70%29.83 "Hg5 mi
9:30 PM84 °FPartly cloudy.9 mph74%29.83 "Hg5 mi
9:00 PM82 °FPartly cloudy.10 mph74%29.83 "Hg5 mi
8:30 PM82 °FPartly cloudy.3 mph79%29.83 "Hg5 mi
8:00 PM82 °FPartly cloudy.7 mph74%29.83 "Hg5 mi
7:30 PM84 °FPartly cloudy.12 mph70%29.80 "Hg5 mi
7:00 PM84 °FPartly cloudy.12 mph70%29.80 "Hg5 mi
6:30 PM84 °FBroken clouds.14 mph74%29.80 "Hg5 mi
6:00 PM84 °FBroken clouds.14 mph74%29.80 "Hg5 mi
5:30 PM84 °FBroken clouds.15 mph74%29.80 "Hg5 mi
5:00 PM86 °FBroken clouds.15 mph70%29.77 "Hg5 mi
4:30 PM86 °FBroken clouds.15 mph70%29.77 "Hg5 mi
4:00 PM86 °FBroken clouds.17 mph70%29.77 "Hg5 mi
3:30 PM86 °FBroken clouds.14 mph70%29.80 "Hg5 mi
3:00 PM86 °FBroken clouds.15 mph70%29.80 "Hg5 mi
Weather by CustomWeather, © 2014

See weather overviewHow to use our weather pages